Total_Precipitation_Accumulation
0.73 0.78 0.75 0.75 0.79 0.78 0.81 0.78 0.68 0.57 0.52 0.40 0.24 0.13 0.10 0.08 0.09 0.07 0.05 0.05 0.04 0.04 0.03 0.02 0.02 0.02 0.03 0.02 0.02 0.03 0.03 0.03 0.03 0.02 0.02 0.02 0.01 0.02
0.62 0.67 0.69 0.69 0.67 0.63 0.69 0.78 0.72 0.56 0.48 0.43 0.33 0.24 0.21 0.14 0.15 0.11 0.09 0.10 0.06 0.05 0.03 0.03 0.02 0.02 0.02 0.02 0.02 0.01 0.01 0.01 0.01 0.02 0.02 0.01 0.01 0.01
0.35 0.37 0.45 0.54 0.59 0.60 0.61 0.68 0.74 0.66 0.52 0.52 0.39 0.36 0.37 0.29 0.26 0.18 0.12 0.11 0.09 0.07 0.05 0.04 0.03 0.03 0.03 0.03 0.02 0.01 0.01 0.01 0.01 0.02 0.02 0.02 0.02 0.02
0.26 0.23 0.25 0.32 0.39 0.47 0.54 0.58 0.63 0.69 0.64 0.63 0.59 0.47 0.44 0.41 0.40 0.35 0.24 0.20 0.19 0.19 0.19 0.11 0.07 0.04 0.04 0.03 0.02 0.01 0.01 0.01 0.01 0.02 0.02 0.02 0.03 0.02
0.28 0.27 0.27 0.28 0.31 0.37 0.48 0.58 0.61 0.64 0.66 0.61 0.65 0.64 0.51 0.47 0.41 0.35 0.29 0.31 0.28 0.23 0.29 0.26 0.21 0.15 0.12 0.10 0.08 0.05 0.04 0.04 0.05 0.05 0.04 0.04 0.03 0.03
0.36 0.32 0.27 0.26 0.32 0.44 0.55 0.63 0.64 0.63 0.65 0.66 0.68 0.69 0.59 0.49 0.43 0.41 0.43 0.46 0.39 0.28 0.22 0.24 0.24 0.21 0.18 0.16 0.15 0.13 0.12 0.10 0.09 0.08 0.08 0.08 0.08 0.07
0.39 0.34 0.31 0.31 0.29 0.37 0.48 0.67 0.68 0.71 0.70 0.71 0.70 0.63 0.54 0.44 0.42 0.45 0.44 0.49 0.42 0.37 0.32 0.26 0.27 0.26 0.24 0.23 0.22 0.21 0.19 0.17 0.16 0.13 0.13 0.12 0.11 0.13
0.42 0.38 0.36 0.32 0.28 0.26 0.26 0.40 0.54 0.64 0.71 0.68 0.67 0.63 0.57 0.50 0.52 0.47 0.39 0.36 0.33 0.38 0.33 0.33 0.30 0.29 0.32 0.31 0.36 0.40 0.35 0.30 0.25 0.21 0.18 0.17 0.17 0.17
0.39 0.46 0.48 0.41 0.40 0.40 0.31 0.29 0.31 0.35 0.42 0.48 0.55 0.56 0.56 0.51 0.48 0.45 0.41 0.37 0.31 0.29 0.25 0.25 0.25 0.25 0.27 0.26 0.25 0.26 0.26 0.25 0.22 0.21 0.20 0.19 0.19 0.18
0.40 0.41 0.50 0.52 0.51 0.55 0.48 0.49 0.40 0.32 0.31 0.31 0.37 0.39 0.37 0.42 0.46 0.52 0.49 0.34 0.23 0.19 0.16 0.14 0.16 0.16 0.14 0.15 0.15 0.13 0.13 0.14 0.14 0.15 0.15 0.14 0.14 0.13
0.39 0.42 0.50 0.56 0.68 0.68 0.65 0.62 0.49 0.38 0.38 0.43 0.44 0.41 0.41 0.43 0.45 0.47 0.44 0.37 0.30 0.27 0.23 0.17 0.14 0.12 0.09 0.09 0.08 0.08 0.07 0.07 0.07 0.07 0.07 0.08 0.09 0.10
0.44 0.44 0.60 0.59 0.64 0.61 0.58 0.63 0.60 0.45 0.37 0.41 0.40 0.38 0.34 0.37 0.44 0.48 0.54 0.54 0.45 0.37 0.30 0.23 0.21 0.20 0.18 0.14 0.09 0.06 0.05 0.05 0.05 0.05 0.06 0.06 0.07 0.07
0.40 0.41 0.36 0.44 0.43 0.45 0.48 0.49 0.60 0.46 0.41 0.42 0.35 0.28 0.24 0.26 0.30 0.34 0.43 0.50 0.50 0.44 0.38 0.31 0.28 0.27 0.21 0.17 0.13 0.09 0.05 0.04 0.04 0.05 0.05 0.06 0.06 0.05
0.24 0.28 0.25 0.29 0.32 0.37 0.35 0.41 0.49 0.43 0.38 0.40 0.32 0.25 0.24 0.21 0.19 0.20 0.23 0.29 0.35 0.38 0.37 0.30 0.27 0.24 0.19 0.15 0.13 0.10 0.07 0.05 0.04 0.04 0.04 0.05 0.04 0.04
0.13 0.19 0.21 0.26 0.24 0.24 0.29 0.37 0.37 0.41 0.47 0.42 0.35 0.25 0.19 0.16 0.11 0.11 0.13 0.16 0.19 0.20 0.23 0.29 0.32 0.28 0.21 0.15 0.09 0.07 0.07 0.07 0.05 0.04 0.05 0.05 0.04 0.03
0.11 0.17 0.22 0.28 0.25 0.24 0.26 0.30 0.34 0.40 0.48 0.42 0.31 0.21 0.14 0.12 0.10 0.10 0.11 0.10 0.11 0.12 0.14 0.19 0.31 0.42 0.42 0.36 0.29 0.22 0.19 0.16 0.14 0.13 0.11 0.08 0.07 0.07
0.17 0.30 0.39 0.38 0.35 0.31 0.29 0.34 0.35 0.33 0.35 0.35 0.30 0.20 0.15 0.12 0.09 0.07 0.07 0.08 0.09 0.10 0.11 0.09 0.09 0.15 0.23 0.29 0.33 0.34 0.34 0.33 0.31 0.30 0.25 0.17 0.13 0.14
0.33 0.49 0.56 0.60 0.58 0.50 0.45 0.43 0.41 0.37 0.34 0.34 0.31 0.23 0.18 0.14 0.11 0.08 0.07 0.08 0.08 0.09 0.09 0.07 0.04 0.05 0.08 0.12 0.13 0.18 0.22 0.22 0.24 0.27 0.27 0.22 0.16 0.17
0.65 0.68 0.67 0.68 0.68 0.57 0.47 0.41 0.32 0.26 0.26 0.27 0.24 0.21 0.16 0.10 0.07 0.06 0.05 0.05 0.05 0.05 0.04 0.04 0.05 0.06 0.08 0.10 0.11 0.09 0.13 0.16 0.18 0.19 0.19 0.18 0.15 0.15
0.73 0.73 0.79 0.75 0.69 0.52 0.36 0.28 0.19 0.15 0.16 0.14 0.12 0.09 0.07 0.05 0.03 0.03 0.03 0.02 0.02 0.02 0.03 0.05 0.06 0.07 0.10 0.11 0.11 0.09 0.10 0.15 0.18 0.18 0.17 0.16 0.14 0.14
0.39 0.44 0.47 0.45 0.39 0.28 0.18 0.13 0.07 0.05 0.06 0.05 0.05 0.03 0.03 0.02 0.03 0.03 0.03 0.03 0.03 0.04 0.04 0.04 0.05 0.05 0.05 0.08 0.10 0.09 0.09 0.12 0.13 0.12 0.13 0.15 0.16 0.16
0.12 0.13 0.12 0.11 0.09 0.07 0.04 0.04 0.04 0.03 0.03 0.02 0.02 0.02 0.02 0.02 0.02 0.03 0.04 0.04 0.05 0.04 0.04 0.04 0.03 0.04 0.05 0.07 0.09 0.08 0.06 0.05 0.08 0.13 0.14 0.14 0.14 0.15
0.03 0.04 0.04 0.03 0.02 0.01 0.01 0.02 0.02 0.02 0.01 0.02 0.01 0.02 0.02 0.03 0.03 0.03 0.03 0.04 0.04 0.04 0.03 0.03 0.03 0.03 0.04 0.06 0.07 0.07 0.06 0.05 0.06 0.09 0.17 0.26 0.23 0.16